Weather History for KCLK - November, 2012

Change the Weather History Date:

Saturday, November 24, 2012

  Actual Average (KCSM) Record (KCSM)
Temperature  
Mean Temperature 43 °F -  
Max Temperature 60 °F 55 °F 72 °F (2010)
Min Temperature 26 °F 34 °F 18 °F (2003)
Degree Days  
Heating Degree Days 22    
Moisture  
Dew Point 18 °F    
Average Humidity 40    
Maximum Humidity 69    
Minimum Humidity 15    
Precipitation  
Precipitation 0.00 in - - ()
Sea Level Pressure  
Sea Level Pressure 30.19 in    
Wind  
Wind Speed 9 mph (South)    
Max Wind Speed 25 mph    
Max Gust Speed 32 mph    
Visibility 10 miles    
Events      
Averages and records for this station are not official NWS values.
T = Trace of Precipitation, MM = Missing Value Source: NWS Daily Summary

Daily Weather History Graph

Daily Weather History Graph

Search for Another Location

Airport or City:

Trip Planner

Search our weather history database for the weather conditions in past years. The results will help you decide how hot, cold, wet, or windy it might be!

Date:

Astronomy

Nov. 24, 2012 Rise Set
Actual Time 7:20 AM CST 5:24 PM CST
Civil Twilight 6:52 AM CST 5:51 PM CST
Nautical Twilight 6:21 AM CST 6:23 PM CST
Astronomical Twilight 5:51 AM CST 6:53 PM CST
Moon 3:04 PM CST (11/24) 3:44 AM CST (11/24)
Length of Visible Light 10h 58m
Length of Day
10h 03m
Waxing Gibbous, 87% of the Moon is Illuminated
Nov 24
Waxing Gibbous
Nov 28
Full
Dec 6
Last Quarter
Dec 13
New
Dec 19
First Quarter

Hourly Weather History & Observations

Time (CST) Temp. Windchill Dew Point Humidity Pressure Visibility Wind Dir Wind Speed Gust Speed Precip Events Conditions
12:15 AM 32.0 °F 28.7 °F 17.6 °F 55% 30.43 in 10.0 mi ESE 3.5 mph - N/A   Clear
12:35 AM 32.0 °F 27.5 °F 17.6 °F 55% 30.42 in 10.0 mi SE 4.6 mph - N/A   Clear
12:55 AM 33.8 °F 30.8 °F 19.4 °F 56% 30.41 in 10.0 mi SE 3.5 mph - N/A   Clear
1:15 AM 32.0 °F 28.7 °F 19.4 °F 60% 30.41 in 10.0 mi SSE 3.5 mph - N/A   Clear
1:35 AM 32.0 °F - 17.6 °F 55% 30.41 in 10.0 mi Calm Calm - N/A   Clear
2:15 AM 30.2 °F - 17.6 °F 60% 30.40 in 10.0 mi Calm Calm - N/A   Clear
2:35 AM 30.2 °F - 17.6 °F 60% 30.39 in 10.0 mi Calm Calm - N/A   Clear
2:55 AM 28.4 °F 24.6 °F 17.6 °F 64% 30.38 in 10.0 mi WSW 3.5 mph - N/A   Clear
3:15 AM 26.6 °F 20.0 °F 17.6 °F 69% 30.38 in 10.0 mi WSW 5.8 mph - N/A   Clear
3:35 AM 26.6 °F 22.6 °F 17.6 °F 69% 30.39 in 10.0 mi WNW 3.5 mph - N/A   Clear
4:15 AM 26.6 °F - 17.6 °F 69% 30.38 in 10.0 mi Calm Calm - N/A   Clear
4:35 AM 26.6 °F - 17.6 °F 69% 30.37 in 10.0 mi Calm Calm - N/A   Clear
4:55 AM 28.4 °F - 17.6 °F 64% 30.36 in 10.0 mi Calm Calm - N/A   Clear
5:15 AM 30.2 °F 26.7 °F 19.4 °F 64% 30.36 in 10.0 mi SSE 3.5 mph - N/A   Clear
5:35 AM 26.6 °F - 17.6 °F 69% 30.36 in 10.0 mi Calm Calm - N/A   Clear
6:15 AM 26.6 °F 20.0 °F 17.6 °F 69% 30.35 in 10.0 mi South 5.8 mph - N/A   Clear
6:35 AM 26.6 °F 19.1 °F 17.6 °F 69% 30.35 in 10.0 mi South 6.9 mph - N/A   Clear
6:55 AM 28.4 °F 20.4 °F 19.4 °F 69% 30.34 in 10.0 mi South 8.1 mph - N/A   Clear
7:15 AM 28.4 °F 21.2 °F 19.4 °F 69% 30.34 in 10.0 mi South 6.9 mph - N/A   Clear
7:35 AM 28.4 °F 20.4 °F 19.4 °F 69% 30.33 in 10.0 mi South 8.1 mph - N/A   Clear
7:55 AM 30.2 °F 21.9 °F 21.2 °F 69% 30.32 in 10.0 mi South 9.2 mph - N/A   Clear
8:15 AM 32.0 °F 24.8 °F 21.2 °F 64% 30.32 in 10.0 mi SSE 8.1 mph - N/A   Clear
8:35 AM 33.8 °F 26.4 °F 21.2 °F 60% 30.32 in 10.0 mi SSE 9.2 mph - N/A   Clear
8:55 AM 33.8 °F 26.4 °F 21.2 °F 60% 30.32 in 10.0 mi SSE 9.2 mph - N/A   Clear
9:15 AM 35.6 °F 28.6 °F 21.2 °F 56% 30.31 in 10.0 mi South 9.2 mph - N/A   Clear
9:35 AM 39.2 °F 32.0 °F 21.2 °F 49% 30.30 in 10.0 mi South 11.5 mph - N/A   Clear
9:55 AM 44.6 °F 37.8 °F 19.4 °F 37% 30.29 in 10.0 mi South 15.0 mph - N/A   Clear
10:15 AM 46.4 °F 40.1 °F 19.4 °F 34% 30.29 in 10.0 mi South 15.0 mph - N/A   Clear
10:35 AM 48.2 °F - 19.4 °F 32% 30.28 in 10.0 mi SSW 17.3 mph 20.7 mph N/A   Clear
10:55 AM 50.0 °F - 19.4 °F 30% 30.27 in 10.0 mi South 18.4 mph - N/A   Clear
11:15 AM 51.8 °F - 19.4 °F 28% 30.26 in 10.0 mi SSW 18.4 mph 25.3 mph N/A   Clear
11:35 AM 51.8 °F - 19.4 °F 28% 30.24 in 10.0 mi South 19.6 mph 24.2 mph N/A   Clear
11:55 AM 53.6 °F - 17.6 °F 24% 30.22 in 10.0 mi South 23.0 mph 28.8 mph N/A   Clear
12:15 PM 55.4 °F - 17.6 °F 23% 30.19 in 10.0 mi South 21.9 mph 25.3 mph N/A   Clear
12:35 PM 55.4 °F - 17.6 °F 23% 30.18 in 10.0 mi SSW 21.9 mph 26.5 mph N/A   Clear
12:55 PM 57.2 °F - 12.2 °F 17% 30.16 in 10.0 mi SSW 21.9 mph 28.8 mph N/A   Clear
1:15 PM 59.0 °F - 14.0 °F 17% 30.14 in 10.0 mi SSW 23.0 mph 31.1 mph N/A   Clear
1:35 PM 59.0 °F - 10.4 °F 15% 30.12 in 10.0 mi SSW 25.3 mph 32.2 mph N/A   Clear
1:55 PM 59.0 °F - 12.2 °F 16% 30.11 in 10.0 mi SSW 23.0 mph 31.1 mph N/A   Clear
2:15 PM 59.0 °F - 12.2 °F 16% 30.09 in 10.0 mi SSW 20.7 mph 27.6 mph N/A   Clear
2:35 PM 60.8 °F - 12.2 °F 15% 30.07 in 10.0 mi SSW 21.9 mph 29.9 mph N/A   Clear
2:55 PM 60.8 °F - 12.2 °F 15% 30.07 in 10.0 mi SSW 20.7 mph 28.8 mph N/A   Clear
3:15 PM 60.8 °F - 12.2 °F 15% 30.05 in 10.0 mi SSW 23.0 mph 29.9 mph N/A   Clear
3:35 PM 60.8 °F - 12.2 °F 15% 30.05 in 10.0 mi South 24.2 mph 31.1 mph N/A   Clear
3:55 PM 60.8 °F - 12.2 °F 15% 30.04 in 10.0 mi SSW 18.4 mph 27.6 mph N/A   Clear
4:15 PM 60.8 °F - 14.0 °F 16% 30.04 in 10.0 mi South 15.0 mph 25.3 mph N/A   Clear
4:35 PM 59.0 °F - 14.0 °F 17% 30.03 in 10.0 mi South 19.6 mph 23.0 mph N/A   Clear
4:55 PM 59.0 °F - 15.8 °F 19% 30.02 in 10.0 mi South 17.3 mph 24.2 mph N/A   Clear
5:15 PM 57.2 °F - 17.6 °F 21% 30.02 in 10.0 mi South 13.8 mph - N/A   Clear
5:35 PM 55.4 °F - 17.6 °F 23% 30.01 in 10.0 mi South 12.7 mph - N/A   Clear
5:55 PM 53.6 °F - 19.4 °F 26% 30.01 in 10.0 mi South 11.5 mph - N/A   Clear
6:15 PM 53.6 °F - 19.4 °F 26% 30.02 in 10.0 mi South 9.2 mph - N/A   Clear
6:35 PM 50.0 °F - 19.4 °F 30% 30.01 in 10.0 mi South 10.4 mph - N/A   Clear
6:55 PM 50.0 °F - 19.4 °F 30% 30.01 in 10.0 mi SSE 10.4 mph - N/A   Clear
7:15 PM 50.0 °F - 19.4 °F 30% 30.01 in 10.0 mi SSE 10.4 mph - N/A   Clear
7:35 PM 50.0 °F - 19.4 °F 30% 30.01 in 10.0 mi SSE 9.2 mph - N/A   Clear
7:55 PM 48.2 °F - 19.4 °F 32% 30.01 in 10.0 mi SSE 11.5 mph - N/A   Clear
8:15 PM 46.4 °F 41.5 °F 19.4 °F 34% 30.00 in 10.0 mi SSE 10.4 mph - N/A   Clear
8:35 PM 46.4 °F 41.1 °F 17.6 °F 32% 30.00 in 10.0 mi SSE 11.5 mph - N/A   Clear
8:55 PM 46.4 °F 40.4 °F 17.6 °F 32% 29.99 in 10.0 mi SSE 13.8 mph - N/A   Clear
9:15 PM 46.4 °F 40.7 °F 17.6 °F 32% 29.99 in 10.0 mi SSE 12.7 mph - N/A   Clear
9:35 PM 46.4 °F 40.7 °F 17.6 °F 32% 29.98 in 10.0 mi SSE 12.7 mph - N/A   Clear
9:55 PM 44.6 °F 38.4 °F 17.6 °F 34% 29.98 in 10.0 mi SSE 12.7 mph - N/A   Clear
10:15 PM 44.6 °F 38.4 °F 17.6 °F 34% 29.97 in 10.0 mi SSE 12.7 mph - N/A   Clear
10:35 PM 44.6 °F 38.4 °F 17.6 °F 34% 29.97 in 10.0 mi SSE 12.7 mph - N/A   Clear
11:15 PM 44.6 °F 38.4 °F 17.6 °F 34% 29.96 in 10.0 mi SSE 12.7 mph - N/A   Clear
11:35 PM 44.6 °F 38.8 °F 19.4 °F 37% 29.96 in 10.0 mi SSE 11.5 mph - N/A   Clear